Radiation Dose at Monitoring Post of Fukushima Daini Nuclear Power Station
Date,Time,MP-1(microSv/h),MP-2(microSv/h),MP-3(microSv/h),MP-4(microSv/h),MP-5(microSv/h),MP-6(microSv/h),MP-7(microSv/h),Wind Direction,Wind Velocity(m/s),Rain
2015/04/16,00:00,0.528,0.324,0.543,0.505,0.543,0.244,0.214,northeast,0.9,No
2015/04/16,00:10,0.527,0.325,0.545,0.503,0.544,0.244,0.215,north,1.8,No
2015/04/16,00:20,0.526,0.325,0.543,0.503,0.544,0.242,0.214,north-northwest,2.2,No
2015/04/16,00:30,0.528,0.324,0.542,0.503,0.544,0.243,0.214,north-northeast,1.7,No
2015/04/16,00:40,0.525,0.325,0.544,0.503,0.544,0.244,0.213,-,CALM,No
2015/04/16,00:50,0.527,0.325,0.542,0.504,0.543,0.243,0.214,southeast,0.8,No
2015/04/16,01:00,0.526,0.323,0.543,0.504,0.542,0.242,0.214,west-southwest,2.2,No
2015/04/16,01:10,0.527,0.324,0.545,0.503,0.543,0.243,0.213,southwest,3.4,No
2015/04/16,01:20,0.527,0.324,0.542,0.502,0.542,0.244,0.213,southwest,4.5,No
2015/04/16,01:30,0.527,0.325,0.542,0.504,0.543,0.242,0.215,west-southwest,4.2,No
2015/04/16,01:40,0.524,0.324,0.544,0.502,0.545,0.243,0.214,southwest,3.0,No
2015/04/16,01:50,0.525,0.324,0.542,0.503,0.543,0.244,0.215,southwest,3.1,No
2015/04/16,02:00,0.525,0.324,0.543,0.505,0.541,0.243,0.212,south-southwest,3.5,No
2015/04/16,02:10,0.524,0.323,0.544,0.503,0.544,0.242,0.213,southwest,2.7,No
2015/04/16,02:20,0.527,0.325,0.542,0.503,0.543,0.242,0.213,west-southwest,3.7,No
2015/04/16,02:30,0.525,0.325,0.542,0.503,0.541,0.243,0.213,south-southwest,3.2,No
2015/04/16,02:40,0.525,0.323,0.544,0.503,0.544,0.242,0.214,south,3.2,No
2015/04/16,02:50,0.528,0.324,0.541,0.503,0.541,0.243,0.212,south,4.1,No
2015/04/16,03:00,0.523,0.325,0.543,0.505,0.543,0.243,0.215,south,5.2,No
2015/04/16,03:10,0.528,0.324,0.544,0.502,0.545,0.242,0.214,south,3.9,No
2015/04/16,03:20,0.526,0.324,0.542,0.504,0.542,0.243,0.214,south,4.6,No
2015/04/16,03:30,0.525,0.325,0.546,0.505,0.543,0.243,0.212,south-southwest,4.0,No
2015/04/16,03:40,0.526,0.323,0.544,0.504,0.545,0.243,0.213,south-southwest,3.3,No
2015/04/16,03:50,0.525,0.323,0.543,0.504,0.545,0.242,0.213,south,4.5,No
2015/04/16,04:00,0.526,0.326,0.545,0.506,0.544,0.243,0.214,south-southwest,3.1,No
2015/04/16,04:10,0.528,0.324,0.542,0.505,0.545,0.242,0.214,south,4.4,No
2015/04/16,04:20,0.526,0.325,0.543,0.505,0.542,0.243,0.215,south-southwest,4.4,No
2015/04/16,04:30,0.526,0.324,0.546,0.505,0.541,0.242,0.213,south-southwest,4.0,No
2015/04/16,04:40,0.527,0.326,0.543,0.502,0.544,0.243,0.215,south-southwest,5.3,No
2015/04/16,04:50,0.525,0.323,0.545,0.507,0.544,0.243,0.213,south,4.7,No
2015/04/16,05:00,0.526,0.324,0.547,0.506,0.545,0.243,0.214,south-southwest,4.0,No
2015/04/16,05:10,0.524,0.326,0.543,0.504,0.545,0.242,0.214,south-southwest,3.3,No
2015/04/16,05:20,0.525,0.323,0.544,0.505,0.542,0.241,0.214,south-southwest,1.9,No
2015/04/16,05:30,0.527,0.324,0.544,0.503,0.543,0.243,0.214,southwest,1.1,No
2015/04/16,05:40,0.525,0.325,0.542,0.504,0.544,0.242,0.215,southwest,2.6,No
2015/04/16,05:50,0.529,0.325,0.544,0.505,0.543,0.243,0.214,southwest,3.7,No
2015/04/16,06:00,0.526,0.326,0.545,0.503,0.545,0.244,0.214,west-southwest,5.0,No
2015/04/16,06:10,0.527,0.325,0.543,0.505,0.544,0.243,0.214,west-southwest,5.8,No
2015/04/16,06:20,0.528,0.324,0.545,0.507,0.542,0.242,0.214,west-southwest,7.1,Yes
2015/04/16,06:30,0.526,0.324,0.545,0.505,0.544,0.244,0.214,west-southwest,4.5,Yes
2015/04/16,06:40,0.527,0.326,0.542,0.505,0.546,0.244,0.214,southwest,4.6,No
2015/04/16,06:50,0.528,0.324,0.548,0.506,0.545,0.244,0.213,south-southwest,3.8,No
2015/04/16,07:00,0.525,0.326,0.543,0.503,0.546,0.243,0.214,south-southwest,4.5,No
2015/04/16,07:10,0.530,0.325,0.544,0.508,0.544,0.244,0.214,south-southwest,5.3,No
2015/04/16,07:20,0.526,0.323,0.547,0.504,0.546,0.244,0.214,south-southwest,5.2,No
2015/04/16,07:30,0.528,0.325,0.543,0.502,0.545,0.244,0.214,south-southwest,5.3,No
2015/04/16,07:40,0.527,0.324,0.546,0.508,0.544,0.243,0.213,south-southwest,4.8,No
2015/04/16,07:50,0.527,0.326,0.544,0.502,0.545,0.244,0.215,south,4.5,No
2015/04/16,08:00,0.527,0.323,0.544,0.508,0.545,0.244,0.214,south-southeast,4.9,No
2015/04/16,08:10,0.524,0.324,0.545,0.504,0.547,0.243,0.215,south,4.0,No
2015/04/16,08:20,0.530,0.325,0.543,0.506,0.544,0.244,0.215,south-southeast,3.6,No
2015/04/16,08:30,0.525,0.326,0.546,0.505,0.546,0.244,0.216,south,4.1,No
2015/04/16,08:40,0.531,0.325,0.543,0.507,0.545,0.244,0.215,south,4.3,No
2015/04/16,08:50,0.524,0.325,0.545,0.507,0.547,0.244,0.214,south-southwest,5.4,No
2015/04/16,09:00,0.528,0.325,0.541,0.507,0.544,0.243,0.215,south-southwest,7.9,No
2015/04/16,09:10,0.521,0.323,0.546,0.507,0.547,0.244,0.216,south-southwest,6.3,No
2015/04/16,09:20,0.528,0.325,0.544,0.507,0.545,0.243,0.215,south-southwest,5.8,No
2015/04/16,09:30,0.524,0.325,0.546,0.507,0.547,0.245,0.215,south-southwest,3.8,No
2015/04/16,09:40,0.526,0.322,0.544,0.506,0.544,0.245,0.215,south-southeast,3.3,No
2015/04/16,09:50,0.525,0.326,0.546,0.506,0.547,0.245,0.215,southeast,4.2,No
2015/04/16,10:00,0.529,0.325,0.544,0.508,0.543,0.243,0.215,south-southeast,6.2,No
2015/04/16,10:10,0.526,0.324,0.547,0.508,0.549,0.245,0.215,south,7.1,No
2015/04/16,10:20,0.530,0.326,0.545,0.509,0.546,0.243,0.215,south,6.0,No
2015/04/16,10:30,0.528,0.325,0.547,0.509,0.547,0.246,0.217,south,5.4,No
2015/04/16,10:40,0.527,0.325,0.544,0.509,0.546,0.244,0.215,south-southwest,5.0,No
2015/04/16,10:50,0.529,0.326,0.549,0.505,0.550,0.246,0.217,south,4.8,No
2015/04/16,11:00,0.523,0.324,0.546,0.510,0.545,0.244,0.216,south-southwest,5.1,No
2015/04/16,11:10,0.526,0.324,0.541,0.504,0.540,0.244,0.216,south-southwest,6.4,No
2015/04/16,11:20,0.529,0.325,0.549,0.505,0.548,0.245,0.215,south,6.5,No
2015/04/16,11:30,0.525,0.325,0.542,0.506,0.549,0.244,0.217,south-southeast,7.0,No
2015/04/16,11:40,0.530,0.326,0.549,0.507,0.548,0.246,0.215,south,6.8,No
2015/04/16,11:50,0.526,0.325,0.549,0.512,0.551,0.245,0.216,south,8.6,No
2015/04/16,12:00,0.531,0.328,0.545,0.508,0.548,0.247,0.216,south,8.9,No
2015/04/16,12:10,0.528,0.325,0.551,0.510,0.551,0.245,0.216,south,7.6,No
2015/04/16,12:20,0.526,0.327,0.545,0.508,0.543,0.246,0.215,south,8.0,No
2015/04/16,12:30,0.531,0.327,0.547,0.509,0.552,0.246,0.216,south,8.0,No
2015/04/16,12:40,0.526,0.327,0.550,0.511,0.545,0.245,0.216,south,8.6,No
2015/04/16,12:50,0.532,0.328,0.545,0.511,0.550,0.247,0.217,south,7.9,No
2015/04/16,13:00,0.527,0.325,0.550,0.514,0.551,0.247,0.216,south,9.6,No
2015/04/16,13:10,0.528,0.328,0.548,0.509,0.545,0.246,0.218,south,7.5,No
2015/04/16,13:20,0.532,0.324,0.545,0.514,0.552,0.245,0.216,south,6.5,No
2015/04/16,13:30,0.527,0.328,0.553,0.508,0.546,0.247,0.217,south,4.5,No
2015/04/16,13:40,0.532,0.325,0.549,0.514,0.551,0.247,0.217,south,6.2,No
2015/04/16,13:50,0.527,0.327,0.548,0.512,0.551,0.245,0.218,south,6.4,No
2015/04/16,14:00,0.531,0.325,0.551,0.510,0.546,0.246,0.216,south,6.6,No
2015/04/16,14:10,0.531,0.326,0.547,0.512,0.554,0.245,0.217,south,5.7,No
2015/04/16,14:20,0.529,0.328,0.547,0.508,0.548,0.245,0.218,south,5.4,No
2015/04/16,14:30,0.531,0.324,0.549,0.514,0.544,0.246,0.217,south,7.0,No
2015/04/16,14:40,0.525,0.328,0.544,0.510,0.551,0.245,0.216,south,6.5,No
2015/04/16,14:50,0.533,0.326,0.547,0.506,0.546,0.246,0.217,south,7.3,No
2015/04/16,15:00,0.528,0.325,0.551,0.512,0.544,0.245,0.216,south,7.6,No
2015/04/16,15:10,0.531,0.327,0.548,0.511,0.554,0.247,0.217,south,7.5,No
2015/04/16,15:20,0.532,0.327,0.554,0.516,0.548,0.246,0.216,south,6.2,No
2015/04/16,15:30,0.531,0.330,0.550,0.509,0.553,0.246,0.218,south,5.4,No
2015/04/16,15:40,0.532,0.326,0.553,0.515,0.552,0.245,0.217,south,6.1,No
2015/04/16,15:50,0.528,0.327,0.552,0.511,0.550,0.246,0.219,south,5.3,No
2015/04/16,16:00,0.534,0.327,0.551,0.515,0.553,0.245,0.219,south,5.3,No
2015/04/16,16:10,0.528,0.328,0.553,0.514,0.550,0.247,0.218,south,5.3,No
2015/04/16,16:20,0.535,0.327,0.553,0.515,0.551,0.246,0.218,south,6.1,No
2015/04/16,16:30,0.529,0.328,0.553,0.513,0.552,0.246,0.218,south,6.4,No
2015/04/16,16:40,0.535,0.328,0.552,0.515,0.552,0.246,0.218,south,6.4,No
2015/04/16,16:50,0.529,0.327,0.552,0.512,0.553,0.247,0.218,south,6.5,No
2015/04/16,17:00,0.533,0.327,0.554,0.512,0.550,0.246,0.217,south,6.6,No
2015/04/16,17:10,0.530,0.326,0.551,0.514,0.554,0.246,0.218,south,3.3,No
2015/04/16,17:20,0.531,0.329,0.554,0.512,0.549,0.248,0.219,south-southwest,2.3,No
2015/04/16,17:30,0.531,0.326,0.549,0.514,0.553,0.248,0.218,southwest,1.2,No
2015/04/16,17:40,0.532,0.329,0.554,0.513,0.549,0.247,0.218,west-northwest,1.7,No
2015/04/16,17:50,0.531,0.326,0.550,0.515,0.554,0.246,0.218,west-northwest,1.3,No
2015/04/16,18:00,0.530,0.328,0.554,0.514,0.551,0.248,0.218,northwest,2.2,No
2015/04/16,18:10,0.531,0.329,0.551,0.513,0.554,0.246,0.218,northwest,1.9,No
2015/04/16,18:20,0.529,0.326,0.553,0.515,0.552,0.246,0.217,northwest,1.9,No
2015/04/16,18:30,0.531,0.328,0.552,0.513,0.550,0.247,0.218,west-northwest,2.6,No
2015/04/16,18:40,0.530,0.326,0.552,0.516,0.554,0.247,0.219,west-southwest,1.0,No
2015/04/16,18:50,0.534,0.328,0.553,0.512,0.549,0.248,0.216,south-southeast,2.1,No
2015/04/16,19:00,0.529,0.326,0.549,0.514,0.554,0.247,0.218,south-southeast,2.4,No
2015/04/16,19:10,0.532,0.327,0.554,0.514,0.549,0.247,0.218,south-southeast,1.6,No
2015/04/16,19:20,0.529,0.328,0.552,0.513,0.553,0.248,0.217,south-southwest,1.1,No
2015/04/16,19:30,0.530,0.326,0.553,0.515,0.550,0.247,0.218,south-southwest,1.4,No
2015/04/16,19:40,0.532,0.330,0.552,0.511,0.550,0.247,0.219,south-southwest,0.8,No
2015/04/16,19:50,0.531,0.327,0.551,0.515,0.553,0.247,0.218,southwest,0.7,No
2015/04/16,20:00,0.533,0.328,0.553,0.513,0.549,0.247,0.218,-,CALM,No
2015/04/16,20:10,0.530,0.327,0.552,0.515,0.552,0.246,0.218,west,0.5,No
2015/04/16,20:20,0.533,0.326,0.555,0.512,0.547,0.248,0.217,west-northwest,0.6,No
2015/04/16,20:30,0.529,0.330,0.550,0.511,0.553,0.247,0.217,-,CALM,No
2015/04/16,20:40,0.533,0.326,0.554,0.515,0.550,0.246,0.218,-,CALM,No
2015/04/16,20:50,0.530,0.329,0.551,0.512,0.552,0.247,0.219,south-southwest,1.0,No
2015/04/16,21:00,0.530,0.329,0.553,0.516,0.551,0.248,0.218,south-southwest,1.1,No
2015/04/16,21:10,0.532,0.328,0.551,0.513,0.550,0.247,0.218,-,CALM,No
2015/04/16,21:20,0.532,0.329,0.552,0.514,0.551,0.247,0.218,southwest,2.2,No
2015/04/16,21:30,0.532,0.328,0.552,0.514,0.551,0.247,0.218,southwest,3.5,No
2015/04/16,21:40,0.530,0.328,0.551,0.513,0.552,0.248,0.219,south-southwest,3.4,No
2015/04/16,21:50,0.534,0.327,0.557,0.516,0.549,0.247,0.219,south-southwest,3.6,No
2015/04/16,22:00,0.530,0.328,0.552,0.513,0.550,0.249,0.219,southwest,3.7,No
2015/04/16,22:10,0.532,0.330,0.554,0.515,0.551,0.247,0.217,south-southwest,2.5,No
2015/04/16,22:20,0.530,0.328,0.554,0.516,0.547,0.248,0.219,southwest,1.9,No
2015/04/16,22:30,0.531,0.330,0.553,0.515,0.553,0.248,0.218,southwest,2.0,No
2015/04/16,22:40,0.532,0.329,0.555,0.515,0.548,0.247,0.218,southwest,1.8,No
2015/04/16,22:50,0.530,0.328,0.551,0.513,0.551,0.248,0.219,south-southwest,1.8,No
2015/04/16,23:00,0.533,0.328,0.553,0.516,0.551,0.248,0.218,southwest,1.9,No
2015/04/16,23:10,0.530,0.328,0.553,0.516,0.551,0.247,0.219,south-southwest,2.1,No
2015/04/16,23:20,0.534,0.328,0.552,0.513,0.550,0.247,0.218,southwest,2.2,No
2015/04/16,23:30,0.530,0.328,0.554,0.514,0.548,0.247,0.218,south-southwest,1.3,No
2015/04/16,23:40,0.531,0.326,0.553,0.514,0.550,0.247,0.217,south-southwest,1.9,No
2015/04/16,23:50,0.532,0.329,0.555,0.515,0.549,0.247,0.219,west-southwest,1.6,No
